Flag for United Arab Emirates Weather past 2 weeks in Dubai, Dubai, United Arab Emirates

Now
100 °F

Passing clouds.


Feels Like: 110 °F
Forecast: 88 / 98 °F
Wind: 16 mph from Northwest

Location: Dubai International Airport

Current Time: Sep 20, 2014 at 4:09:34 PM

Latest Report: Sep 20, 2014 at 3:00 PM


Visibility: N/A

Pressure: 29.62 "Hg

Humidity: 40%

Dew point: 72 °F

Location of DubaiLocation

Historic Weather in Dubai — Graph

°F

Dubai temperature yesterday

Maximum temperature yesterday: 99 °F (at 11:00 AM)
Minimum temperature yesterday: 86 °F (at 6:00 AM)
Average temperature yesterday: 93 °F

Past Weeks' High & Low Weather Summary

 TemperatureHumidityPressure
High109 °F (Sep 8, 1:00 PM)89% (Sep 6, 2:00 AM)29.80 "Hg (Sep 6, 2:00 AM)
Low84 °F (Sep 20, 6:00 AM)18% (Sep 16, 2:00 PM)29.47 "Hg (Sep 5, 3:00 PM)
Average94 °F60%29.62 "Hg
* Reported Sep 5 3:00 PM — Sep 20 3:00 PM, Dubai, Weather by CustomWeather, © 2014

Note: Actual official high and low records may vary slightly from our data, if they occured in-between our weather recording intervals... More about our weather records

Advertising

Dubai weather history for previous 24 hours

 ConditionsComfort  
Time TempWeatherWind HumidityBarometerVisibility
3:00 PM
Sep 20
100 °FPassing clouds.16 mph40%29.62 "HgN/A
2:00 PM100 °FPassing clouds.17 mph40%29.65 "HgN/A
1:00 PM99 °FSunny.15 mph50%29.65 "Hg10 mi
12:00 PM99 °FPassing clouds.12 mph47%29.68 "HgN/A
11:00 AM99 °FSunny.3 mph42%29.71 "Hg10 mi
10:00 AM93 °FSunny.3 mph67%29.74 "Hg10 mi
9:00 AM91 °FPassing clouds.7 mph71%29.74 "HgN/A
8:00 AM88 °FClear.6 mph79%29.71 "Hg4 mi
7:00 AM86 °FHaze.6 mph84%29.71 "Hg3 mi
6:00 AM84 °FClear.5 mph89%29.68 "Hg4 mi
5:00 AM86 °FClear.6 mph84%29.68 "Hg4 mi
4:00 AM86 °FClear.3 mph84%29.68 "Hg4 mi
3:00 AM88 °FClear.5 mph79%29.68 "Hg4 mi
2:00 AM90 °FClear.7 mph75%29.68 "Hg10 mi
1:00 AM91 °FPassing clouds.3 mph71%29.68 "HgN/A
12:00 AM91 °FPassing clouds.5 mph67%29.71 "HgN/A
11:00 PM
Sep 19
95 °FClear.5 mph53%29.71 "Hg10 mi
10:00 PM93 °FPassing clouds.7 mph59%29.71 "HgN/A
9:00 PM95 °FClear.6 mph53%29.71 "Hg10 mi
8:00 PM93 °FClear.7 mph63%29.71 "Hg10 mi
7:00 PM93 °FPassing clouds.8 mph67%29.71 "HgN/A
6:00 PM95 °FClear.13 mph63%29.71 "Hg5 mi
5:00 PM95 °FClear.13 mph63%29.68 "Hg4 mi
4:00 PM97 °FClear.13 mph53%29.68 "Hg6 mi
Weather by CustomWeather, © 2014

See weather overviewHow to use our weather pages